Вернуться в каталог

COSMOS 2251 DEB

АктивенLEO
NORAD 37993·DEBRIS·🇷🇺 Russia

Запущен Jun 16, 1993 с Plesetsk Cosmodrome

Loading…

Ближайшие Пролёты (ближайшие 24 часа)

TLE

СвежийSource: Space-Track

Эпоха: Sep 13, 2026, 13:31 UTC

1 37993U 93036BQU 26256.56323550  .00003156  00000-0  62448-3 0  9994
2 37993  74.0252   0.7575 0021459  18.4262 341.7677 14.62633116693322

Отслеживайте COSMOS 2251 DEB в реальном времени с AllMySat

Download on the App Store